Location: Unspecified
(44.0704°N, 88.6889°W)
Time: 06:38:15
(UTC+02:00)

Transit 2A - Pass Details

Date: 17 June 2019
Orbit: 595 x 964 km, 66.7° (Epoch: 22 July)

Event Time Altitude Azimuth Distance (km) Brightness Sun altitude
Rises 08:30:35 0° 184° (S) 3,589 - -22.1°
Reaches altitude 10° 08:33:16 10° 176° (S) 2,672 - -22.0°
Exits shadow 08:37:07 31° 146° (SSE) 1,615 7.3 -21.9°
Maximum altitude 08:39:00 38° 111° (ESE) 1,434 7.3 -21.8°
Drops below altitude 10° 08:44:46 10° 46° (NE) 2,683 9.6 -21.6°
Sets 08:47:27 0° 39° (NE) 3,606 10.6 -21.5°
